Tracking 35275 objects as of 8-Sep-2026
HD Live streaming from Space Station
objects crossing your sky now

MOLNIYA 1-50


MOLNIYA 1-50 is no longer on orbit


NORAD ID: 12556
Int'l Code: 1981-060A
Launch date: June 24, 1981
Source: Commonwealth of Independent States (former USSR) (CIS)
Launch site: PLESETSK MISSILE AND SPACE COMPLEX (PKMTR)
Decay date: 1991-12-14
Your satellite tracking list
Your tracking list is empty




NASA's NSSDC Master Catalog

Two Line Element Set (TLE):
1 12556U 81060  A 92152.08391019  .00019290 +00000-0 +51372-3 0  9996
2 12556 032.2211 036.9738 0011173 240.2573 119.7042 15.36983948421832
Source of the keplerian elements: AFSPC